sat.trackr.live / text

‹ back to catalog

YAOGAN-36 04C

NORAD 54750 · 2022-171E

PAYLOAD ACTIVE UNKNOWN

§ Identity

Operator
Country
PRC
Launch date
2022-12-14
Launch site
XICLF
Launch vehicle
Mass (kg)
RCS (m²)

External: N2YO · Heavens-Above · Gunter

§ Orbital elements

Epoch: 2026-09-20T12:22:37.057152Z

Period
93.82 min
Inclination
34.9810°
Eccentricity
0.0005976
Mean motion
15.34840614 rev/d
Perigee alt
457.3 km
Apogee alt
465.5 km
Semi-major
6,839.5 km
B*
2.8937e-4
RAAN
293.9934°
Arg perigee
272.0144°
Mean anomaly
87.9889°
Rev number
21,013

§ Raw data

YAOGAN-36 04C1 54750U 22171E   26263.51570668  .00010017  00000+0  28937-3 0  99912 54750  34.9810 293.9934 0005976 272.0144  87.9889 15.34840614210136

JSON: /api/v1/satellites/54750 · /tle

For live sub-satellite position, see the globe view (requires WebGL).

§ Visibility from observer

Set your observer location to see the next 7 days of passes ≥ 10°. The values pass through the URL so the page stays shareable.

No JS? Fill the form by hand. The geolocation button needs JavaScript.